Year,Month,Day,Hour,Minute,Value (Times are PST for temperature in C)
2018,06,18,00,00,18.20
2018,06,18,00,01,18.20
2018,06,18,00,02,18.20
2018,06,18,00,03,18.20
2018,06,18,00,04,18.20
2018,06,18,00,05,18.20
2018,06,18,00,06,18.10
2018,06,18,00,07,18.10
2018,06,18,00,08,18.10
2018,06,18,00,09,18.00
2018,06,18,00,10,18.00
2018,06,18,00,11,18.00
2018,06,18,00,12,17.90
2018,06,18,00,13,17.90
2018,06,18,00,14,17.90
2018,06,18,00,15,17.80
2018,06,18,00,16,17.80
2018,06,18,00,17,17.80
2018,06,18,00,18,17.70
2018,06,18,00,19,17.70
2018,06,18,00,20,17.70
2018,06,18,00,21,17.70
2018,06,18,00,22,17.60
2018,06,18,00,23,17.60
2018,06,18,00,24,17.60
2018,06,18,00,25,17.60
2018,06,18,00,26,17.60
2018,06,18,00,27,17.50
2018,06,18,00,28,17.50
2018,06,18,00,29,17.40
2018,06,18,00,30,17.40
2018,06,18,00,31,17.40
2018,06,18,00,32,17.40
2018,06,18,00,33,17.40
2018,06,18,00,34,17.30
2018,06,18,00,35,17.30
2018,06,18,00,36,17.30
2018,06,18,00,37,17.30
2018,06,18,00,38,17.20
2018,06,18,00,39,17.20
2018,06,18,00,40,17.20
2018,06,18,00,41,17.20
2018,06,18,00,42,17.20
2018,06,18,00,43,17.20
2018,06,18,00,44,17.20
2018,06,18,00,45,17.10
2018,06,18,00,46,17.10
2018,06,18,00,47,17.10
2018,06,18,00,48,17.10
2018,06,18,00,49,17.00
2018,06,18,00,50,17.00
2018,06,18,00,51,17.00
2018,06,18,00,52,16.90
2018,06,18,00,53,16.90
2018,06,18,00,54,16.80
2018,06,18,00,55,16.80
2018,06,18,00,56,16.70
2018,06,18,00,57,16.70
2018,06,18,00,58,16.60
2018,06,18,00,59,16.60
2018,06,18,01,00,16.60
2018,06,18,01,01,16.50
2018,06,18,01,02,16.50
2018,06,18,01,03,16.40
2018,06,18,01,04,16.40
2018,06,18,01,05,16.30
2018,06,18,01,06,16.30
2018,06,18,01,07,16.30
2018,06,18,01,08,16.20
2018,06,18,01,09,16.20
2018,06,18,01,10,16.10
2018,06,18,01,11,16.10
2018,06,18,01,12,16.00
2018,06,18,01,13,16.00
2018,06,18,01,14,15.90
2018,06,18,01,15,15.90
2018,06,18,01,16,15.90
2018,06,18,01,17,15.80
2018,06,18,01,18,15.80
2018,06,18,01,19,15.80
2018,06,18,01,20,15.80
2018,06,18,01,21,15.80
2018,06,18,01,22,15.70
2018,06,18,01,23,15.70
2018,06,18,01,24,15.70
2018,06,18,01,25,15.70
2018,06,18,01,26,15.70
2018,06,18,01,27,15.70
2018,06,18,01,28,15.60
2018,06,18,01,29,15.50
2018,06,18,01,30,15.50
2018,06,18,01,31,15.50
2018,06,18,01,32,15.40
2018,06,18,01,33,15.40
2018,06,18,01,34,15.40
2018,06,18,01,35,15.40
2018,06,18,01,36,15.40
2018,06,18,01,37,15.40
2018,06,18,01,38,15.30
2018,06,18,01,39,15.30
2018,06,18,01,40,15.30
2018,06,18,01,41,15.30
2018,06,18,01,42,15.30
2018,06,18,01,43,15.30
2018,06,18,01,44,15.30
2018,06,18,01,45,15.20
2018,06,18,01,46,15.20
2018,06,18,01,47,15.20
2018,06,18,01,48,15.20
2018,06,18,01,49,15.20
2018,06,18,01,50,15.20
2018,06,18,01,51,15.10
2018,06,18,01,52,15.10
2018,06,18,01,53,15.10
2018,06,18,01,54,15.10
2018,06,18,01,55,15.10
2018,06,18,01,56,15.10
2018,06,18,01,57,15.10
2018,06,18,01,58,15.10
2018,06,18,01,59,15.20
2018,06,18,02,00,15.20
2018,06,18,02,01,15.10
2018,06,18,02,02,15.20
2018,06,18,02,03,15.20
2018,06,18,02,04,15.20
2018,06,18,02,05,15.10
2018,06,18,02,06,15.20
2018,06,18,02,07,15.20
2018,06,18,02,08,15.20
2018,06,18,02,09,15.20
2018,06,18,02,10,15.20
2018,06,18,02,11,15.20
2018,06,18,02,12,15.20
2018,06,18,02,13,15.20
2018,06,18,02,14,15.20
2018,06,18,02,15,15.10
2018,06,18,02,16,15.10
2018,06,18,02,17,15.10
2018,06,18,02,18,15.10
2018,06,18,02,19,15.10
2018,06,18,02,20,15.10
2018,06,18,02,21,15.10
2018,06,18,02,22,15.10
2018,06,18,02,23,15.10
2018,06,18,02,24,15.10
2018,06,18,02,25,15.00
2018,06,18,02,26,15.00
2018,06,18,02,27,15.00
2018,06,18,02,28,14.90
2018,06,18,02,29,14.90
2018,06,18,02,30,14.90
2018,06,18,02,31,14.90
2018,06,18,02,32,14.80
2018,06,18,02,33,14.80
2018,06,18,02,34,14.80
2018,06,18,02,35,14.80
2018,06,18,02,36,14.80
2018,06,18,02,37,14.80
2018,06,18,02,38,14.70
2018,06,18,02,39,14.70
2018,06,18,02,40,14.70
2018,06,18,02,41,14.70
2018,06,18,02,42,14.60
2018,06,18,02,43,14.60
2018,06,18,02,44,14.60
2018,06,18,02,45,14.60
2018,06,18,02,46,14.60
2018,06,18,02,47,14.60
2018,06,18,02,48,14.60
2018,06,18,02,49,14.50
2018,06,18,02,50,14.50
2018,06,18,02,51,14.50
2018,06,18,02,52,14.50
2018,06,18,02,53,14.40
2018,06,18,02,54,14.40
2018,06,18,02,55,14.40
2018,06,18,02,56,14.40
2018,06,18,02,57,14.50
2018,06,18,02,58,14.40
2018,06,18,02,59,14.40
2018,06,18,03,00,14.40
2018,06,18,03,01,14.40
2018,06,18,03,02,14.50
2018,06,18,03,03,14.50
2018,06,18,03,04,14.50
2018,06,18,03,05,14.50
2018,06,18,03,06,14.50
2018,06,18,03,07,14.40
2018,06,18,03,08,14.40
2018,06,18,03,09,14.40
2018,06,18,03,10,14.40
2018,06,18,03,11,14.40
2018,06,18,03,12,14.40
2018,06,18,03,13,14.40
2018,06,18,03,14,14.40
2018,06,18,03,15,14.40
2018,06,18,03,16,14.30
2018,06,18,03,17,14.30
2018,06,18,03,18,14.30
2018,06,18,03,19,14.30
2018,06,18,03,20,14.20
2018,06,18,03,21,14.20
2018,06,18,03,22,14.10
2018,06,18,03,23,14.10
2018,06,18,03,24,14.00
2018,06,18,03,25,14.00
2018,06,18,03,26,13.90
2018,06,18,03,27,13.90
2018,06,18,03,28,13.80
2018,06,18,03,29,13.80
2018,06,18,03,30,13.80
2018,06,18,03,31,13.80
2018,06,18,03,32,13.70
2018,06,18,03,33,13.70
2018,06,18,03,34,13.70
2018,06,18,03,35,13.70
2018,06,18,03,36,13.60
2018,06,18,03,37,13.60
2018,06,18,03,38,13.60
2018,06,18,03,39,13.60
2018,06,18,03,40,13.60
2018,06,18,03,41,13.60
2018,06,18,03,42,13.60
2018,06,18,03,43,13.60
2018,06,18,03,44,13.60
2018,06,18,03,45,13.60
2018,06,18,03,46,13.60
2018,06,18,03,47,13.60
2018,06,18,03,48,13.60
2018,06,18,03,49,13.60
2018,06,18,03,50,13.60
2018,06,18,03,51,13.60
2018,06,18,03,52,13.60
2018,06,18,03,53,13.60
2018,06,18,03,54,13.70
2018,06,18,03,55,13.60
2018,06,18,03,56,13.60
2018,06,18,03,57,13.60
2018,06,18,03,58,13.60
2018,06,18,03,59,13.60
2018,06,18,04,00,13.60
2018,06,18,04,01,13.60
2018,06,18,04,02,13.60
2018,06,18,04,03,13.60
2018,06,18,04,04,13.60
2018,06,18,04,05,13.60
2018,06,18,04,06,13.60
2018,06,18,04,07,13.60
2018,06,18,04,08,13.60
2018,06,18,04,09,13.60
2018,06,18,04,10,13.60
2018,06,18,04,11,13.50
2018,06,18,04,12,13.50
2018,06,18,04,13,13.50
2018,06,18,04,14,13.50
2018,06,18,04,15,13.40
2018,06,18,04,16,13.40
2018,06,18,04,17,13.40
2018,06,18,04,18,13.40
2018,06,18,04,19,13.30
2018,06,18,04,20,13.30
2018,06,18,04,21,13.30
2018,06,18,04,22,13.30
2018,06,18,04,23,13.20
2018,06,18,04,24,13.20
2018,06,18,04,25,13.20
2018,06,18,04,26,13.20
2018,06,18,04,27,13.10
2018,06,18,04,28,13.10
2018,06,18,04,29,13.10
2018,06,18,04,30,13.10
2018,06,18,04,31,13.10
2018,06,18,04,32,13.10
2018,06,18,04,33,13.10
2018,06,18,04,34,13.10
2018,06,18,04,35,13.10
2018,06,18,04,36,13.10
2018,06,18,04,37,13.00
2018,06,18,04,38,13.00
2018,06,18,04,39,13.00
2018,06,18,04,40,12.90
2018,06,18,04,41,12.90
2018,06,18,04,42,12.90
2018,06,18,04,43,12.80
2018,06,18,04,44,12.80
2018,06,18,04,45,12.80
2018,06,18,04,46,12.80
2018,06,18,04,47,12.70
2018,06,18,04,48,12.70
2018,06,18,04,49,12.70
2018,06,18,04,50,12.70
2018,06,18,04,51,12.70
2018,06,18,04,52,12.70
2018,06,18,04,53,12.70
2018,06,18,04,54,12.70
2018,06,18,04,55,12.60
2018,06,18,04,56,12.60
2018,06,18,04,57,12.60
2018,06,18,04,58,12.60
2018,06,18,04,59,12.60
2018,06,18,05,00,12.60
2018,06,18,05,01,12.60
2018,06,18,05,02,12.70
2018,06,18,05,03,12.70
2018,06,18,05,04,12.70
2018,06,18,05,05,12.70
2018,06,18,05,06,12.70
2018,06,18,05,07,12.70
2018,06,18,05,08,12.70
2018,06,18,05,09,12.60
2018,06,18,05,10,12.60
2018,06,18,05,11,12.60
2018,06,18,05,12,12.60
2018,06,18,05,13,12.70
2018,06,18,05,14,12.70
2018,06,18,05,15,12.70
2018,06,18,05,16,12.70
2018,06,18,05,17,12.70
2018,06,18,05,18,12.70
2018,06,18,05,19,12.70
2018,06,18,05,20,12.70
2018,06,18,05,21,12.70
2018,06,18,05,22,12.70
2018,06,18,05,23,12.70
2018,06,18,05,24,12.70
2018,06,18,05,25,12.70
2018,06,18,05,26,12.70
2018,06,18,05,27,12.70
2018,06,18,05,28,12.70
2018,06,18,05,29,12.70
2018,06,18,05,30,12.70
2018,06,18,05,31,12.70
2018,06,18,05,32,12.70
2018,06,18,05,33,12.70
2018,06,18,05,34,12.70
2018,06,18,05,35,12.70
2018,06,18,05,36,12.70
2018,06,18,05,37,12.70
2018,06,18,05,38,12.70
2018,06,18,05,39,12.70
2018,06,18,05,40,12.70
2018,06,18,05,41,12.60
2018,06,18,05,42,12.60
2018,06,18,05,43,12.60
2018,06,18,05,44,12.60
2018,06,18,05,45,12.60
2018,06,18,05,46,12.60
2018,06,18,05,47,12.60
2018,06,18,05,48,12.60
2018,06,18,05,49,12.60
2018,06,18,05,50,12.60
2018,06,18,05,51,12.60
2018,06,18,05,52,12.60
2018,06,18,05,53,12.60
2018,06,18,05,54,12.60
2018,06,18,05,55,12.60
2018,06,18,05,56,12.60
2018,06,18,05,57,12.70
2018,06,18,05,58,12.70
2018,06,18,05,59,12.70
2018,06,18,06,00,12.70
2018,06,18,06,01,12.70
2018,06,18,06,02,12.80
2018,06,18,06,03,12.80
2018,06,18,06,04,12.90
2018,06,18,06,05,13.00
2018,06,18,06,06,13.10
2018,06,18,06,07,13.20
2018,06,18,06,08,13.20
2018,06,18,06,09,13.30
2018,06,18,06,10,13.30
2018,06,18,06,11,13.30
2018,06,18,06,12,13.30
2018,06,18,06,13,13.40
2018,06,18,06,14,13.40
2018,06,18,06,15,13.50
2018,06,18,06,16,13.60
2018,06,18,06,17,13.60
2018,06,18,06,18,13.70
2018,06,18,06,19,13.70
2018,06,18,06,20,13.80
2018,06,18,06,21,13.80
2018,06,18,06,22,13.90
2018,06,18,06,23,13.90
2018,06,18,06,24,14.00
2018,06,18,06,25,14.10
2018,06,18,06,26,14.10
2018,06,18,06,27,14.20
2018,06,18,06,28,14.20
2018,06,18,06,29,14.20
2018,06,18,06,30,14.20
2018,06,18,06,31,14.20
2018,06,18,06,32,14.20
2018,06,18,06,33,14.20
2018,06,18,06,34,14.20
2018,06,18,06,35,14.20
2018,06,18,06,36,14.20
2018,06,18,06,37,14.20
2018,06,18,06,38,14.20
2018,06,18,06,39,14.30
2018,06,18,06,40,14.30
2018,06,18,06,41,14.30
2018,06,18,06,42,14.30
2018,06,18,06,43,14.30
2018,06,18,06,44,14.40
2018,06,18,06,45,14.40
2018,06,18,06,46,14.40
2018,06,18,06,47,14.50
2018,06,18,06,48,14.50
2018,06,18,06,49,14.60
2018,06,18,06,50,14.60
2018,06,18,06,51,14.70
2018,06,18,06,52,14.70
2018,06,18,06,53,14.80
2018,06,18,06,54,14.90
2018,06,18,06,55,15.00
2018,06,18,06,56,15.10
2018,06,18,06,57,15.20
2018,06,18,06,58,15.20
2018,06,18,06,59,15.30
2018,06,18,07,00,15.30
2018,06,18,07,01,15.40
2018,06,18,07,02,15.40
2018,06,18,07,03,15.40
2018,06,18,07,04,15.50
2018,06,18,07,05,15.50
2018,06,18,07,06,15.60
2018,06,18,07,07,15.60
2018,06,18,07,08,15.60
2018,06,18,07,09,15.70
2018,06,18,07,10,15.70
2018,06,18,07,11,15.80
2018,06,18,07,12,15.90
2018,06,18,07,13,16.00
2018,06,18,07,14,16.00
2018,06,18,07,15,16.10
2018,06,18,07,16,16.20
2018,06,18,07,17,16.40
2018,06,18,07,18,16.60
2018,06,18,07,19,16.80
2018,06,18,07,20,17.00
2018,06,18,07,21,17.10
2018,06,18,07,22,17.30
2018,06,18,07,23,17.40
2018,06,18,07,24,17.50
2018,06,18,07,25,17.60
2018,06,18,07,26,17.70
2018,06,18,07,27,17.80
2018,06,18,07,28,17.80
2018,06,18,07,29,17.90
2018,06,18,07,30,17.90
2018,06,18,07,31,17.90
2018,06,18,07,32,18.00
2018,06,18,07,33,18.10
2018,06,18,07,34,18.20
2018,06,18,07,35,18.30
2018,06,18,07,36,18.40
2018,06,18,07,37,18.50
2018,06,18,07,38,18.70
2018,06,18,07,39,18.80
2018,06,18,07,40,18.90
2018,06,18,07,41,19.00
2018,06,18,07,42,19.00
2018,06,18,07,43,19.10
2018,06,18,07,44,19.10
2018,06,18,07,45,19.20
2018,06,18,07,46,19.20
2018,06,18,07,47,19.20
2018,06,18,07,48,19.30
2018,06,18,07,49,19.30
2018,06,18,07,50,19.30
2018,06,18,07,51,19.30
2018,06,18,07,52,19.30
2018,06,18,07,53,19.30
2018,06,18,07,54,19.30
2018,06,18,07,55,19.30
2018,06,18,07,56,19.30
2018,06,18,07,57,19.30
2018,06,18,07,58,19.30
2018,06,18,07,59,19.40
2018,06,18,08,00,19.40
2018,06,18,08,01,19.40
2018,06,18,08,02,19.50
2018,06,18,08,03,19.50
2018,06,18,08,04,19.60
2018,06,18,08,05,19.60
2018,06,18,08,06,19.70
2018,06,18,08,07,19.70
2018,06,18,08,08,19.80
2018,06,18,08,09,19.80
2018,06,18,08,10,19.90
2018,06,18,08,11,19.90
2018,06,18,08,12,20.00
2018,06,18,08,13,20.10
2018,06,18,08,14,20.20
2018,06,18,08,15,20.30
2018,06,18,08,16,20.40
2018,06,18,08,17,20.50
2018,06,18,08,18,20.50
2018,06,18,08,19,20.60
2018,06,18,08,20,20.60
2018,06,18,08,21,20.60
2018,06,18,08,22,20.60
2018,06,18,08,23,20.70
2018,06,18,08,24,20.70
2018,06,18,08,25,20.80
2018,06,18,08,26,20.80
2018,06,18,08,27,20.90
2018,06,18,08,28,20.90
2018,06,18,08,29,20.90
2018,06,18,08,30,21.00
2018,06,18,08,31,21.10
2018,06,18,08,32,21.20
2018,06,18,08,33,21.20
2018,06,18,08,34,21.20
2018,06,18,08,35,21.30
2018,06,18,08,36,21.30
2018,06,18,08,37,21.40
2018,06,18,08,38,21.50
2018,06,18,08,39,21.60
2018,06,18,08,40,21.60
2018,06,18,08,41,21.70
2018,06,18,08,42,21.80
2018,06,18,08,43,21.90
2018,06,18,08,44,22.00
2018,06,18,08,45,22.10
2018,06,18,08,46,22.10
2018,06,18,08,47,22.20
2018,06,18,08,48,22.20
2018,06,18,08,49,22.20
2018,06,18,08,50,22.20
2018,06,18,08,51,22.30
2018,06,18,08,52,22.30
2018,06,18,08,53,22.30
2018,06,18,08,54,22.30
2018,06,18,08,55,22.40
2018,06,18,08,56,22.50
2018,06,18,08,57,22.60
2018,06,18,08,58,22.60
2018,06,18,08,59,22.70
2018,06,18,09,00,22.80
2018,06,18,09,01,22.90
2018,06,18,09,02,23.00
2018,06,18,09,03,23.10
2018,06,18,09,04,23.10
2018,06,18,09,05,23.20
2018,06,18,09,06,23.30
2018,06,18,09,07,23.30
2018,06,18,09,08,23.40
2018,06,18,09,09,23.40
2018,06,18,09,10,23.50
2018,06,18,09,11,23.60
2018,06,18,09,12,23.60
2018,06,18,09,13,23.70
2018,06,18,09,14,23.70
2018,06,18,09,15,23.80
2018,06,18,09,16,23.80
2018,06,18,09,17,23.90
2018,06,18,09,18,24.00
2018,06,18,09,19,24.00
2018,06,18,09,20,24.10
2018,06,18,09,21,24.20
2018,06,18,09,22,24.40
2018,06,18,09,23,24.50
2018,06,18,09,24,24.50
2018,06,18,09,25,24.60
2018,06,18,09,26,24.70
2018,06,18,09,27,24.80
2018,06,18,09,28,24.90
2018,06,18,09,29,25.10
2018,06,18,09,30,25.20
2018,06,18,09,31,25.30
2018,06,18,09,32,25.50
2018,06,18,09,33,25.60
2018,06,18,09,34,25.70
2018,06,18,09,35,25.80
2018,06,18,09,36,25.80
2018,06,18,09,37,25.90
2018,06,18,09,38,26.00
2018,06,18,09,39,26.00
2018,06,18,09,40,26.10
2018,06,18,09,41,26.20
2018,06,18,09,42,26.20
2018,06,18,09,43,26.20
2018,06,18,09,44,26.30
2018,06,18,09,45,26.30
2018,06,18,09,46,26.40
2018,06,18,09,47,26.40
2018,06,18,09,48,26.40
2018,06,18,09,49,26.30
2018,06,18,09,50,26.30
2018,06,18,09,51,26.20
2018,06,18,09,52,26.10
2018,06,18,09,53,26.10
2018,06,18,09,54,26.00
2018,06,18,09,55,26.00
2018,06,18,09,56,26.00
2018,06,18,09,57,26.00
2018,06,18,09,58,26.00
2018,06,18,09,59,26.00
2018,06,18,10,00,26.00
2018,06,18,10,01,26.00
2018,06,18,10,02,26.00
2018,06,18,10,03,26.10
2018,06,18,10,04,26.20
2018,06,18,10,05,26.30
2018,06,18,10,06,26.40
2018,06,18,10,07,26.50
2018,06,18,10,08,26.50
2018,06,18,10,09,26.60
2018,06,18,10,10,26.60
2018,06,18,10,11,26.60
2018,06,18,10,12,26.70
2018,06,18,10,13,26.70
2018,06,18,10,14,26.70
2018,06,18,10,15,26.70
2018,06,18,10,16,26.80
2018,06,18,10,17,26.80
2018,06,18,10,18,26.80
2018,06,18,10,19,26.80
2018,06,18,10,20,26.70
2018,06,18,10,21,26.70
2018,06,18,10,22,26.70
2018,06,18,10,23,26.70
2018,06,18,10,24,26.80
2018,06,18,10,25,26.90
2018,06,18,10,26,26.90
2018,06,18,10,27,27.00
2018,06,18,10,28,27.10
2018,06,18,10,29,27.10
2018,06,18,10,30,27.20
2018,06,18,10,31,27.20
2018,06,18,10,32,27.30
2018,06,18,10,33,27.30
2018,06,18,10,34,27.40
2018,06,18,10,35,27.50
2018,06,18,10,36,27.50
2018,06,18,10,37,27.60
2018,06,18,10,38,27.70
2018,06,18,10,39,27.80
2018,06,18,10,40,27.80
2018,06,18,10,41,27.70
2018,06,18,10,42,27.70
2018,06,18,10,43,27.70
2018,06,18,10,44,27.70
2018,06,18,10,45,27.60
2018,06,18,10,46,27.60
2018,06,18,10,47,27.60
2018,06,18,10,48,27.50
2018,06,18,10,49,27.30
2018,06,18,10,50,27.20
2018,06,18,10,51,27.10
2018,06,18,10,52,27.00
2018,06,18,10,53,26.90
2018,06,18,10,54,26.70
2018,06,18,10,55,26.50
2018,06,18,10,56,26.30
2018,06,18,10,57,26.20
2018,06,18,10,58,26.10
2018,06,18,10,59,26.10
2018,06,18,11,00,26.10
2018,06,18,11,01,26.10
2018,06,18,11,02,26.10
2018,06,18,11,03,26.10
2018,06,18,11,04,26.10
2018,06,18,11,05,26.20
2018,06,18,11,06,26.30
2018,06,18,11,07,26.40
2018,06,18,11,08,26.40
2018,06,18,11,09,26.50
2018,06,18,11,10,26.60
2018,06,18,11,11,26.70
2018,06,18,11,12,26.70
2018,06,18,11,13,26.70
2018,06,18,11,14,26.80
2018,06,18,11,15,26.90
2018,06,18,11,16,27.00
2018,06,18,11,17,27.00
2018,06,18,11,18,26.90
2018,06,18,11,19,26.90
2018,06,18,11,20,27.00
2018,06,18,11,21,27.10
2018,06,18,11,22,27.00
2018,06,18,11,23,27.10
2018,06,18,11,24,27.10
2018,06,18,11,25,27.20
2018,06,18,11,26,27.30
2018,06,18,11,27,27.30
2018,06,18,11,28,27.30
2018,06,18,11,29,27.30
2018,06,18,11,30,27.30
2018,06,18,11,31,27.40
2018,06,18,11,32,27.40
2018,06,18,11,33,27.50
2018,06,18,11,34,27.50
2018,06,18,11,35,27.60
2018,06,18,11,36,27.60
2018,06,18,11,37,27.60
2018,06,18,11,38,27.70
2018,06,18,11,39,27.80
2018,06,18,11,40,27.80
2018,06,18,11,41,27.90
2018,06,18,11,42,27.90
2018,06,18,11,43,28.00
2018,06,18,11,44,28.00
2018,06,18,11,45,28.10
2018,06,18,11,46,28.20
2018,06,18,11,47,28.30
2018,06,18,11,48,28.40
2018,06,18,11,49,28.50
2018,06,18,11,50,28.70
2018,06,18,11,51,28.70
2018,06,18,11,52,28.80
2018,06,18,11,53,28.90
2018,06,18,11,54,28.90
2018,06,18,11,55,29.00
2018,06,18,11,56,28.90
2018,06,18,11,57,28.80
2018,06,18,11,58,28.70
2018,06,18,11,59,28.70
2018,06,18,12,00,28.80
2018,06,18,12,01,28.90
2018,06,18,12,02,29.10
2018,06,18,12,03,29.10
2018,06,18,12,04,29.10
2018,06,18,12,05,29.00
2018,06,18,12,06,28.90
2018,06,18,12,07,29.00
2018,06,18,12,08,29.00
2018,06,18,12,09,29.00
2018,06,18,12,10,29.00
2018,06,18,12,11,29.00
2018,06,18,12,12,29.10
2018,06,18,12,13,29.10
2018,06,18,12,14,29.10
2018,06,18,12,15,29.10
2018,06,18,12,16,29.10
2018,06,18,12,17,29.00
2018,06,18,12,18,29.00
2018,06,18,12,19,29.00
2018,06,18,12,20,29.10
2018,06,18,12,21,29.20
2018,06,18,12,22,29.10
2018,06,18,12,23,29.10
2018,06,18,12,24,29.00
2018,06,18,12,25,28.90
2018,06,18,12,26,28.90
2018,06,18,12,27,28.80
2018,06,18,12,28,28.80
2018,06,18,12,29,28.70
2018,06,18,12,30,28.60
2018,06,18,12,31,28.50
2018,06,18,12,32,28.50
2018,06,18,12,33,28.50
2018,06,18,12,34,28.60
2018,06,18,12,35,28.70
2018,06,18,12,36,28.70
2018,06,18,12,37,28.70
2018,06,18,12,38,28.70
2018,06,18,12,39,28.60
2018,06,18,12,40,28.60
2018,06,18,12,41,28.60
2018,06,18,12,42,28.60
2018,06,18,12,43,28.60
2018,06,18,12,44,28.60
2018,06,18,12,45,28.40
2018,06,18,12,46,28.40
2018,06,18,12,47,28.40
2018,06,18,12,48,28.50
2018,06,18,12,49,28.60
2018,06,18,12,50,28.70
2018,06,18,12,51,28.70
2018,06,18,12,52,28.70
2018,06,18,12,53,28.70
2018,06,18,12,54,28.70
2018,06,18,12,55,28.70
2018,06,18,12,56,28.70
2018,06,18,12,57,28.80
2018,06,18,12,58,28.70
2018,06,18,12,59,28.70
2018,06,18,13,00,28.70
2018,06,18,13,01,28.70
2018,06,18,13,02,28.70
2018,06,18,13,03,28.70
2018,06,18,13,04,28.70
2018,06,18,13,05,28.80
2018,06,18,13,06,28.80
2018,06,18,13,07,28.80
2018,06,18,13,08,28.80
2018,06,18,13,09,28.80
2018,06,18,13,10,28.70
2018,06,18,13,11,28.70
2018,06,18,13,12,28.70
2018,06,18,13,13,28.80
2018,06,18,13,14,28.90
2018,06,18,13,15,29.00
2018,06,18,13,16,29.10
2018,06,18,13,17,29.10
2018,06,18,13,18,29.20
2018,06,18,13,19,29.20
2018,06,18,13,20,29.30
2018,06,18,13,21,29.40
2018,06,18,13,22,29.50
2018,06,18,13,23,29.60
2018,06,18,13,24,29.60
2018,06,18,13,25,29.70
2018,06,18,13,26,29.70
2018,06,18,13,27,29.70
2018,06,18,13,28,29.80
2018,06,18,13,29,29.80
2018,06,18,13,30,29.90
2018,06,18,13,31,30.00
2018,06,18,13,32,30.10
2018,06,18,13,33,30.20
2018,06,18,13,34,30.30
2018,06,18,13,35,30.30
2018,06,18,13,36,30.30
2018,06,18,13,37,30.30
2018,06,18,13,38,30.30
2018,06,18,13,39,30.40
2018,06,18,13,40,30.40
2018,06,18,13,41,30.50
2018,06,18,13,42,30.40
2018,06,18,13,43,30.40
2018,06,18,13,44,30.40
2018,06,18,13,45,30.40
2018,06,18,13,46,30.40
2018,06,18,13,47,30.40
2018,06,18,13,48,30.30
2018,06,18,13,49,30.30
2018,06,18,13,50,30.30
2018,06,18,13,51,30.30
2018,06,18,13,52,30.30
2018,06,18,13,53,30.40
2018,06,18,13,54,30.40
2018,06,18,13,55,30.40
2018,06,18,13,56,30.40
2018,06,18,13,57,30.30
2018,06,18,13,58,30.30
2018,06,18,13,59,30.40
2018,06,18,14,00,30.40
2018,06,18,14,01,30.50
2018,06,18,14,02,30.50
2018,06,18,14,03,30.40
2018,06,18,14,04,30.40
2018,06,18,14,05,30.50
2018,06,18,14,06,30.50
2018,06,18,14,07,30.60
2018,06,18,14,08,30.70
2018,06,18,14,09,30.70
2018,06,18,14,10,30.70
2018,06,18,14,11,30.70
2018,06,18,14,12,30.70
2018,06,18,14,13,30.60
2018,06,18,14,14,30.60
2018,06,18,14,15,30.60
2018,06,18,14,16,30.60
2018,06,18,14,17,30.50
2018,06,18,14,18,30.40
2018,06,18,14,19,30.50
2018,06,18,14,20,30.50
2018,06,18,14,21,30.50
2018,06,18,14,22,30.60
2018,06,18,14,23,30.60
2018,06,18,14,24,30.60
2018,06,18,14,25,30.70
2018,06,18,14,26,30.80
2018,06,18,14,27,30.90
2018,06,18,14,28,30.90
2018,06,18,14,29,30.90
2018,06,18,14,30,30.90
2018,06,18,14,31,30.90
2018,06,18,14,32,30.90
2018,06,18,14,33,30.90
2018,06,18,14,34,31.00
2018,06,18,14,35,31.10
2018,06,18,14,36,31.10
2018,06,18,14,37,31.10
2018,06,18,14,38,31.00
2018,06,18,14,39,30.90
2018,06,18,14,40,30.90
2018,06,18,14,41,30.80
2018,06,18,14,42,30.80
2018,06,18,14,43,30.70
2018,06,18,14,44,30.70
2018,06,18,14,45,30.70
2018,06,18,14,46,30.60
2018,06,18,14,47,30.60
2018,06,18,14,48,30.60
2018,06,18,14,49,30.60
2018,06,18,14,50,30.60
2018,06,18,14,51,30.70
2018,06,18,14,52,30.80
2018,06,18,14,53,30.80
2018,06,18,14,54,30.90
2018,06,18,14,55,30.90
2018,06,18,14,56,30.90
2018,06,18,14,57,30.80
2018,06,18,14,58,30.70
2018,06,18,14,59,30.60
2018,06,18,15,00,30.60
2018,06,18,15,01,30.60
2018,06,18,15,02,30.60
2018,06,18,15,03,30.60
2018,06,18,15,04,30.70
2018,06,18,15,05,30.80
2018,06,18,15,06,30.90
2018,06,18,15,07,31.10
2018,06,18,15,08,31.20
2018,06,18,15,09,31.30
2018,06,18,15,10,31.30
2018,06,18,15,11,31.20
2018,06,18,15,12,31.20
2018,06,18,15,13,31.30
2018,06,18,15,14,31.30
2018,06,18,15,15,31.20
2018,06,18,15,16,31.20
2018,06,18,15,17,31.20
2018,06,18,15,18,31.20
2018,06,18,15,19,31.20
2018,06,18,15,20,31.30
2018,06,18,15,21,31.40
2018,06,18,15,22,31.60
2018,06,18,15,23,31.60
2018,06,18,15,24,31.70
2018,06,18,15,25,31.80
2018,06,18,15,26,31.80
2018,06,18,15,27,31.90
2018,06,18,15,28,31.90
2018,06,18,15,29,31.90
2018,06,18,15,30,31.80
2018,06,18,15,31,31.80
2018,06,18,15,32,31.80
2018,06,18,15,33,31.70
2018,06,18,15,34,31.70
2018,06,18,15,35,31.70
2018,06,18,15,36,31.70
2018,06,18,15,37,31.60
2018,06,18,15,38,31.50
2018,06,18,15,39,31.50
2018,06,18,15,40,31.40
2018,06,18,15,41,31.40
2018,06,18,15,42,31.50
2018,06,18,15,43,31.60
2018,06,18,15,44,31.70
2018,06,18,15,45,31.60
2018,06,18,15,46,31.60
2018,06,18,15,47,31.50
2018,06,18,15,48,31.50
2018,06,18,15,49,31.60
2018,06,18,15,50,31.70
2018,06,18,15,51,31.80
2018,06,18,15,52,31.80
2018,06,18,15,53,31.90
2018,06,18,15,54,32.00
2018,06,18,15,55,32.10
2018,06,18,15,56,32.10
2018,06,18,15,57,32.10
2018,06,18,15,58,32.20
2018,06,18,15,59,32.10
2018,06,18,16,00,32.10
2018,06,18,16,01,32.10
2018,06,18,16,02,32.00
2018,06,18,16,03,31.80
2018,06,18,16,04,31.70
2018,06,18,16,05,31.70
2018,06,18,16,06,31.80
2018,06,18,16,07,31.80
2018,06,18,16,08,31.90
2018,06,18,16,09,32.00
2018,06,18,16,10,32.10
2018,06,18,16,11,32.20
2018,06,18,16,12,32.30
2018,06,18,16,13,32.40
2018,06,18,16,14,32.50
2018,06,18,16,15,32.60
2018,06,18,16,16,32.70
2018,06,18,16,17,32.80
2018,06,18,16,18,32.90
2018,06,18,16,19,32.90
2018,06,18,16,20,32.90
2018,06,18,16,21,32.90
2018,06,18,16,22,32.90
2018,06,18,16,23,32.90
2018,06,18,16,24,32.90
2018,06,18,16,25,32.90
2018,06,18,16,26,33.00
2018,06,18,16,27,33.10
2018,06,18,16,28,33.20
2018,06,18,16,29,33.40
2018,06,18,16,30,33.50
2018,06,18,16,31,33.50
2018,06,18,16,32,33.60
2018,06,18,16,33,33.70
2018,06,18,16,34,33.70
2018,06,18,16,35,33.70
2018,06,18,16,36,33.70
2018,06,18,16,37,33.80
2018,06,18,16,38,33.90
2018,06,18,16,39,34.00
2018,06,18,16,40,34.10
2018,06,18,16,41,34.20
2018,06,18,16,42,34.10
2018,06,18,16,43,34.10
2018,06,18,16,44,34.10
2018,06,18,16,45,34.20
2018,06,18,16,46,34.30
2018,06,18,16,47,34.30
2018,06,18,16,48,34.40
2018,06,18,16,49,34.50
2018,06,18,16,50,34.60
2018,06,18,16,51,34.60
2018,06,18,16,52,34.60
2018,06,18,16,53,34.60
2018,06,18,16,54,34.60
2018,06,18,16,55,34.50
2018,06,18,16,56,34.50
2018,06,18,16,57,34.50
2018,06,18,16,58,34.40
2018,06,18,16,59,34.40
2018,06,18,17,00,34.30
2018,06,18,17,01,34.30
2018,06,18,17,02,34.30
2018,06,18,17,03,34.20
2018,06,18,17,04,34.10
2018,06,18,17,05,33.90
2018,06,18,17,06,33.70
2018,06,18,17,07,33.40
2018,06,18,17,08,33.20
2018,06,18,17,09,33.00
2018,06,18,17,10,32.80
2018,06,18,17,11,32.70
2018,06,18,17,12,32.60
2018,06,18,17,13,32.60
2018,06,18,17,14,32.60
2018,06,18,17,15,32.40
2018,06,18,17,16,32.30
2018,06,18,17,17,32.20
2018,06,18,17,18,32.00
2018,06,18,17,19,31.90